Flag for Poland Weather past 2 weeks in Ruda Śląska, Poland

50 °F


Feels Like: 46 °F
Forecast: 35 / 50 °F
Wind: 12 mph from East

Location: Katowice Airport

Current Time: Oct 9, 2015 at 4:45:22 PM

Latest Report: Oct 9, 2015 at 4:00 PM

Visibility: 10 mi

Pressure: 30.15 "Hg

Humidity: 43%

Dew point: 28 °F

Location of Ruda ŚląskaLocation

Historic Weather in Ruda Śląska — Graph


Ruda Śląska temperature yesterday

Maximum temperature yesterday: 55 °F (at 1:30 PM)
Minimum temperature yesterday: 34 °F (at 6:00 AM)
Average temperature yesterday: 44 °F

Past Weeks' High & Low Weather Summary

High73 °F (Oct 4, 3:00 PM)100% (Sep 27, 7:30 AM)30.57 "Hg (Sep 27, 7:30 AM)
Low28 °F (Oct 1, 5:00 AM)32% (Oct 2, 3:00 PM)29.86 "Hg (Oct 6, 4:30 PM)
Average51 °F73%30.21 "Hg
* Reported Sep 24 4:00 PM — Oct 9 4:00 PM, Ruda Śląska, Weather by CustomWeather, © 2015

Note: Actual official high and low records may vary slightly from our data, if they occured in-between our weather recording intervals... More about our weather records


Ruda Śląska weather history for previous 24 hours

Time TempWeatherWind HumidityBarometerVisibility
4:00 PM
Fri, Oct 9
50 °FSunny.12 mph43%30.15 "Hg10 mi
3:30 PM52 °FPassing clouds.13 mph38%30.15 "HgN/A
3:00 PM52 °FPassing clouds.13 mph38%30.15 "HgN/A
2:30 PM52 °FPassing clouds.10 mph41%30.15 "HgN/A
2:00 PM52 °FPassing clouds.9 mph44%30.15 "HgN/A
1:30 PM52 °FPassing clouds.12 mph44%30.15 "HgN/A
1:00 PM52 °FPassing clouds.12 mph44%30.15 "HgN/A
12:30 PM52 °FSunny.13 mph44%30.15 "Hg10 mi
12:00 PM50 °FPassing clouds.13 mph47%30.15 "HgN/A
11:30 AM50 °FPassing clouds.10 mph47%30.15 "HgN/A
11:00 AM48 °FSunny.12 mph50%30.15 "Hg10 mi
10:30 AM48 °FSunny.13 mph46%30.15 "Hg10 mi
10:00 AM45 °FPassing clouds.12 mph53%30.15 "HgN/A
9:30 AM41 °FSunny.7 mph61%30.15 "Hg10 mi
9:00 AM37 °FSunny.2 mph75%30.15 "Hg10 mi
8:30 AM36 °FSunny.3 mph81%30.15 "Hg10 mi
8:00 AM34 °FSunny.1 mph81%30.15 "Hg10 mi
7:30 AM30 °FClear.1 mph93%30.12 "Hg10 mi
7:00 AM30 °FFog.3 mph93%30.12 "HgN/A
6:30 AM28 °FClear.2 mph93%30.12 "Hg10 mi
6:00 AM30 °FClear.2 mph93%30.12 "Hg10 mi
5:30 AM30 °FClear.1 mph93%30.12 "Hg10 mi
5:00 AM30 °FClear.1 mph93%30.12 "Hg10 mi
4:30 AM30 °FClear.3 mph100%30.12 "Hg10 mi
4:00 AM30 °FClear.1 mph93%30.12 "Hg10 mi
3:30 AM30 °FClear.1 mph93%30.12 "Hg10 mi
3:00 AM30 °FClear.2 mph100%30.12 "Hg10 mi
2:30 AM32 °FClear.2 mph93%30.12 "Hg10 mi
2:00 AM32 °FClear.3 mph93%30.12 "Hg10 mi
1:30 AM36 °FClear.1 mph87%30.12 "Hg10 mi
1:00 AM36 °FClear.2 mph87%30.12 "Hg10 mi
12:30 AM36 °FClear.3 mph87%30.12 "Hg10 mi
12:00 AM36 °FClear.3 mph87%30.12 "Hg10 mi
11:30 PM
Thu, Oct 8
37 °FClear.3 mph87%30.12 "Hg10 mi
11:00 PM39 °FClear.3 mph81%30.12 "Hg10 mi
10:30 PM39 °FClear.5 mph81%30.12 "Hg10 mi
10:00 PM41 °FClear.2 mph76%30.12 "Hg10 mi
9:30 PM43 °FClear.5 mph71%30.09 "Hg10 mi
9:00 PM43 °FClear.6 mph71%30.09 "Hg10 mi
8:30 PM45 °FPassing clouds.7 mph71%30.09 "HgN/A
8:00 PM46 °FPassing clouds.9 mph66%30.09 "HgN/A
7:30 PM46 °FPassing clouds.6 mph66%30.09 "HgN/A
7:00 PM46 °FScattered clouds.6 mph66%30.09 "HgN/A
6:30 PM48 °FSunny.6 mph62%30.09 "Hg10 mi
6:00 PM50 °FSunny.8 mph58%30.09 "Hg10 mi
5:30 PM52 °FSunny.10 mph54%30.09 "Hg10 mi
5:00 PM52 °FPassing clouds.10 mph54%30.07 "HgN/A
4:30 PM54 °FPassing clouds.10 mph51%30.07 "HgN/A
4:00 PM55 °FPassing clouds.10 mph47%30.07 "HgN/A
Weather by CustomWeather, © 2015

See weather overviewHow to use our weather pages